Content
SEND FEEDBACK

Daily
Averages
Monthly
Summary
United States of America

WEDDERBURN, OREGON


Home > North America > United States > Oregon
Elevation: 133 feet     Latitude: 42 24N     Longitude: 124 25W

WEATHER
 
SELECT A DAY
Number of Records: 141,397;   Date Range: 8/2/05 - 12/19/14
 
SHARE

PRINT THIS DATA

[ ← Previous Day ]
WEATHER ALMANAC - JANUARY 20, 2013
[ Next Day → ]
[ °C ]   °F
Weather ElementAverageHighLow
Temperature43.9 °F59.9 °F (2:56 pm)34 °F (6:56 am)
Dewpoint39.2 °F47.8 °F (4:56 pm)34 °F (6:56 am)
Humidity86.5 %100 % (1:56 am)48 % (2:56 pm)
Barometer30.22 in30.26 in (1:56 am)30.16 in (3:56 pm)
Wind Speed0.8 mph3.5 mph (2:56 am)
Weather ElementAverage
Visibility9.2 mi
Wind DirectionNNE (35.2 °)

Weather ElementTotal
Precipitation---
Heating Degree Days18.1 (Base 65)
Averaged from 23 records on January 20, 2013
WEATHER CONDITIONS BREAKOUT
WIND DIRECTION BREAKOUT
WEATHER BY HOUR - JANUARY 20, 2013
[ °C ]   °F
Local TimeTemperatureDewpointHumidityBarometerVisibilityWind DirectionWind SpeedGust SpeedPrecipitationEventsConditions
1:56 AM36.0 °F36.0 °F100 %30.26 in10.0 miCalmClear
2:56 AM36.0 °F36.0 °F100 %30.26 in10.0 miNE (50°)3.5 mphClear
3:56 AM36.0 °F36.0 °F100 %30.25 in10.0 miCalmClear
4:56 AM34.9 °F34.9 °F100 %30.25 in10.0 miCalmClear
5:56 AM34.9 °F34.9 °F100 %30.25 in10.0 miCalmClear
6:56 AM34.0 °F34.0 °F100 %30.24 in10.0 miCalmClear
7:56 AM34.0 °F34.0 °F100 %30.24 in10.0 miCalmClear
8:56 AM36.9 °F36.0 °F97 %30.26 in10.0 miCalmClear
9:56 AM41.9 °F37.9 °F86 %30.26 in10.0 miCalmClear
10:56 AM52.9 °F36.0 °F53 %30.26 in10.0 miCalmClear
11:56 AM54.0 °F37.9 °F55 %30.25 in9.0 miWNW (290°)3.5 mphClear
12:56 PM54.0 °F43.9 °F69 %30.22 in6.0 miNW (310°)3.5 mphHaze
1:56 PM55.9 °F43.0 °F62 %30.19 in7.0 miCalmClear
2:56 PM59.9 °F39.9 °F48 %30.17 in10.0 miCalmClear
3:56 PM59.9 °F41.0 °F50 %30.16 in10.0 miCalmClear
4:56 PM52.9 °F47.8 °F83 %30.18 in4.0 miCalmHaze
5:56 PM45.9 °F45.9 °F100 %30.19 in5.0 miCalmClear
6:56 PM43.9 °F41.9 °F93 %30.20 in10.0 miNNE (30°)3.5 mphClear
7:56 PM43.0 °F43.0 °F100 %30.20 in10.0 miCalmClear
8:56 PM43.9 °F41.9 °F93 %30.19 in10.0 miSE (130°)3.5 mphClear
9:56 PM41.0 °F41.0 °F100 %30.21 in10.0 miCalmClear
10:56 PM39.9 °F39.9 °F100 %30.20 in10.0 miCalmClear
11:56 PM37.9 °F37.9 °F100 %30.21 in10.0 miCalmClear
Hourly data recorded from KBOK, located miles away from Wedderburn, Oregon







STORIES FROM OUR PARTNERS